| time (UTC) | temp F | wind direction | speed MPH | gust MPH | rain 1hr in | rain 24hr in | rain mn in | humidity % | barometer mb |
| 20260508101554 | 39 | 141 | 0.0 | 0.0 | 0.00 | 0.00 | 0.00 | 91 | 1014.8 |
| 20260508100009 | 39 | 141 | 0.0 | 0.0 | 0.00 | 0.00 | 0.00 | 90 | 1014.7 |
| 20260508094530 | 40 | 141 | 0.0 | 1.0 | 0.00 | 0.00 | 0.00 | 89 | 1014.8 |
| 20260508093051 | 40 | 141 | 0.0 | 1.0 | 0.00 | 0.00 | 0.00 | 89 | 1014.7 |
| 20260508091502 | 41 | 141 | 0.0 | 0.0 | 0.00 | 0.00 | 0.00 | 87 | 1014.9 |
| 20260508090022 | 42 | 144 | 0.0 | 0.0 | 0.00 | 0.00 | 0.00 | 86 | 1014.9 |
| 20260508084534 | 43 | 144 | 0.0 | 1.0 | 0.00 | 0.00 | 0.00 | 87 | 1014.8 |
| 20260508083007 | 42 | 146 | 0.0 | 1.0 | 0.00 | 0.00 | 0.00 | 87 | 1014.8 |
| 20260508081523 | 42 | 146 | 0.0 | 1.0 | 0.00 | 0.00 | 0.00 | 88 | 1014.9 |
| 20260508080030 | 42 | 146 | 0.0 | 0.0 | 0.00 | 0.00 | 0.00 | 88 | 1014.9 |
| 20260508074550 | 42 | 146 | 0.0 | 2.0 | 0.00 | 0.00 | 0.00 | 88 | 1015.1 |
| 20260508073008 | 41 | 120 | 0.0 | 0.0 | 0.00 | 0.00 | 0.00 | 89 | 1015.2 |
| 20260508071512 | 41 | 127 | 0.0 | 0.0 | 0.00 | 0.00 | 0.00 | 90 | 1015.2 |
| 20260508070032 | 41 | 33 | 0.0 | 0.0 | 0.00 | 0.00 | 0.00 | 91 | 1015.3 |
| 20260508064550 | 40 | 33 | 0.0 | 0.0 | 0.00 | 0.00 | 0.00 | 90 | 1015.0 |
| 20260508063138 | 40 | 33 | 0.0 | 0.0 | 0.00 | 0.00 | 0.00 | 90 | 1014.8 |
| 20260508061505 | 40 | 33 | 0.0 | 0.0 | 0.00 | 0.00 | 0.00 | 90 | 1014.8 |
| 20260508060016 | 40 | 33 | 0.0 | 0.0 | 0.00 | 0.00 | 0.00 | 90 | 1015.0 |
| 20260508054523 | 40 | 33 | 0.0 | 0.0 | 0.00 | 0.00 | 0.00 | 91 | 1014.9 |
| 20260508053052 | 40 | 33 | 0.0 | 0.0 | 0.00 | 0.00 | 0.00 | 91 | 1015.1 |
| 20260508051616 | 40 | 33 | 0.0 | 0.0 | 0.00 | 0.00 | 0.00 | 90 | 1015.3 |
| 20260508050007 | 40 | 33 | 0.0 | 0.0 | 0.00 | 0.00 | 0.00 | 89 | 1015.3 |
| 20260508044525 | 40 | 33 | 0.0 | 0.0 | 0.00 | 0.00 | 0.00 | 88 | 1015.3 |
| 20260508043035 | 40 | 33 | 0.0 | 0.0 | 0.00 | 0.00 | 0.00 | 88 | 1015.2 |
| 20260508041547 | 41 | 33 | 0.0 | 0.0 | 0.00 | 0.00 | 0.00 | 86 | 1015.2 |
| 20260508040003 | 41 | 33 | 0.0 | 0.0 | 0.00 | 0.00 | 0.00 | 85 | 1015.0 |
| 20260508034527 | 42 | 33 | 0.0 | 0.0 | 0.00 | 0.00 | 0.00 | 83 | 1015.1 |
| 20260508033043 | 42 | 33 | 0.0 | 0.0 | 0.00 | 0.00 | 0.00 | 82 | 1015.0 |
| 20260508031545 | 43 | 33 | 0.0 | 0.0 | 0.00 | 0.00 | 0.00 | 78 | 1014.8 |
| 20260508024523 | 44 | 33 | 0.0 | 0.0 | 0.00 | 0.00 | 0.00 | 78 | 1015.1 |
| 20260508023032 | 45 | 33 | 0.0 | 0.0 | 0.00 | 0.00 | 0.00 | 73 | 1015.0 |
| 20260508021553 | 45 | 33 | 0.0 | 0.0 | 0.00 | 0.00 | 0.00 | 71 | 1014.9 |
| 20260508020107 | 46 | 33 | 0.0 | 0.0 | 0.00 | 0.00 | 0.00 | 69 | 1014.9 |
| 20260508014516 | 47 | 33 | 0.0 | 0.0 | 0.00 | 0.00 | 0.00 | 66 | 1014.8 |
| 20260508013033 | 48 | 33 | 0.0 | 0.0 | 0.00 | 0.00 | 0.00 | 64 | 1014.6 |
| 20260508011550 | 49 | 269 | 0.0 | 0.0 | 0.00 | 0.00 | 0.00 | 62 | 1014.4 |
| 20260508004559 | 52 | 269 | 0.0 | 0.0 | 0.00 | 0.00 | 0.00 | 54 | 1014.2 |
| 20260508003021 | 54 | 269 | 0.0 | 4.0 | 0.00 | 0.00 | 0.00 | 48 | 1014.1 |
| 20260508001536 | 55 | 274 | 1.0 | 4.0 | 0.00 | 0.00 | 0.00 | 46 | 1014.1 |
| 20260508000046 | 56 | 323 | 1.0 | 7.0 | 0.00 | 0.00 | 0.00 | 45 | 1014.0 |
| 20260507234547 | 57 | 2 | 2.0 | 7.0 | 0.00 | 0.00 | 0.00 | 43 | 1013.7 |
| 20260507233054 | 57 | 41 | 1.0 | 10.0 | 0.00 | 0.00 | 0.00 | 44 | 1013.6 |
| 20260507231503 | 58 | 278 | 4.0 | 9.0 | 0.00 | 0.00 | 0.00 | 43 | 1013.6 |
| 20260507230036 | 58 | 198 | 3.0 | 9.0 | 0.00 | 0.00 | 0.00 | 43 | 1013.7 |
| 20260507224536 | 57 | 314 | 3.0 | 10.0 | 0.00 | 0.00 | 0.00 | 43 | 1013.8 |
| 20260507223150 | 58 | 278 | 6.0 | 14.0 | 0.00 | 0.00 | 0.00 | 44 | 1013.9 |
| 20260507221502 | 58 | 295 | 6.0 | 15.0 | 0.00 | 0.00 | 0.00 | 44 | 1013.7 |
| 20260507220020 | 59 | 281 | 5.0 | 11.0 | 0.00 | 0.00 | 0.00 | 44 | 1013.6 |
| 20260507214539 | 59 | 323 | 5.0 | 15.0 | 0.00 | 0.00 | 0.00 | 44 | 1013.4 |
| 20260507213051 | 59 | 240 | 5.0 | 14.0 | 0.00 | 0.00 | 0.00 | 45 | 1013.3 |
| 20260507211504 | 60 | 346 | 5.0 | 14.0 | 0.00 | 0.00 | 0.00 | 45 | 1013.0 |
| 20260507210031 | 59 | 286 | 5.0 | 13.0 | 0.00 | 0.00 | 0.00 | 45 | 1012.8 |
| 20260507204537 | 60 | 311 | 4.0 | 16.0 | 0.00 | 0.00 | 0.00 | 44 | 1012.6 |
| 20260507203032 | 60 | 358 | 3.0 | 12.0 | 0.00 | 0.00 | 0.00 | 47 | 1012.8 |
| 20260507201531 | 60 | 342 | 6.0 | 14.0 | 0.00 | 0.00 | 0.00 | 42 | 1012.6 |
| 20260507200000 | 60 | 255 | 6.0 | 22.0 | 0.00 | 0.00 | 0.00 | 42 | 1012.9 |
| 20260507194521 | 60 | 299 | 4.0 | 13.0 | 0.00 | 0.00 | 0.00 | 41 | 1012.8 |
| 20260507193041 | 60 | 317 | 3.0 | 13.0 | 0.00 | 0.00 | 0.00 | 43 | 1013.0 |
| 20260507191526 | 60 | 338 | 3.0 | 12.0 | 0.00 | 0.00 | 0.00 | 46 | 1012.9 |
| 20260507190039 | 61 | 252 | 5.0 | 11.0 | 0.00 | 0.00 | 0.00 | 41 | 1013.0 |
| 20260507184541 | 60 | 331 | 5.0 | 13.0 | 0.00 | 0.00 | 0.00 | 44 | 1013.2 |
| 20260507183059 | 59 | 309 | 3.0 | 10.0 | 0.00 | 0.00 | 0.00 | 46 | 1013.0 |
| 20260507181501 | 60 | 203 | 5.0 | 10.0 | 0.00 | 0.00 | 0.00 | 44 | 1013.0 |
| 20260507180008 | 59 | 341 | 4.0 | 13.0 | 0.00 | 0.00 | 0.00 | 47 | 1013.3 |
| 20260507174519 | 58 | 259 | 5.0 | 10.0 | 0.00 | 0.00 | 0.00 | 46 | 1013.4 |
| 20260507173043 | 58 | 294 | 6.0 | 14.0 | 0.00 | 0.00 | 0.00 | 46 | 1013.5 |
| 20260507171601 | 59 | 283 | 4.0 | 15.0 | 0.00 | 0.00 | 0.00 | 49 | 1013.6 |
| 20260507170006 | 59 | 288 | 3.0 | 9.0 | 0.00 | 0.00 | 0.00 | 49 | 1013.7 |
| 20260507164526 | 58 | 278 | 7.0 | 13.0 | 0.00 | 0.00 | 0.00 | 45 | 1013.9 |
| 20260507163037 | 58 | 234 | 6.0 | 16.0 | 0.00 | 0.00 | 0.00 | 47 | 1014.0 |
| 20260507161607 | 58 | 307 | 6.0 | 10.0 | 0.00 | 0.00 | 0.00 | 47 | 1014.0 |
| 20260507160010 | 57 | 257 | 4.0 | 12.0 | 0.00 | 0.00 | 0.00 | 45 | 1013.9 |
| 20260507154528 | 57 | 270 | 5.0 | 11.0 | 0.00 | 0.00 | 0.00 | 48 | 1014.0 |
| 20260507153035 | 56 | 150 | 5.0 | 13.0 | 0.00 | 0.00 | 0.00 | 47 | 1014.1 |
| 20260507151556 | 56 | 305 | 4.0 | 12.0 | 0.00 | 0.00 | 0.00 | 47 | 1014.1 |
| 20260507150051 | 56 | 292 | 7.0 | 12.0 | 0.00 | 0.00 | 0.00 | 48 | 1014.1 |
| 20260507144546 | 56 | 265 | 4.0 | 11.0 | 0.00 | 0.00 | 0.00 | 49 | 1014.3 |
| 20260507143003 | 55 | 311 | 4.0 | 12.0 | 0.00 | 0.00 | 0.00 | 52 | 1014.4 |
| 20260507141515 | 55 | 307 | 1.0 | 8.0 | 0.00 | 0.00 | 0.00 | 54 | 1014.5 |
| 20260507140021 | 54 | 290 | 3.0 | 8.0 | 0.00 | 0.00 | 0.00 | 58 | 1014.8 |
| 20260507134527 | 53 | 236 | 2.0 | 7.0 | 0.00 | 0.00 | 0.00 | 62 | 1014.8 |
| 20260507133032 | 52 | 247 | 1.0 | 6.0 | 0.00 | 0.00 | 0.00 | 68 | 1015.1 |
| 20260507131559 | 51 | 304 | 2.0 | 4.0 | 0.00 | 0.00 | 0.00 | 69 | 1015.0 |
| 20260507130012 | 50 | 248 | 0.0 | 5.0 | 0.00 | 0.00 | 0.00 | 73 | 1015.1 |
| 20260507124518 | 49 | 347 | 1.0 | 6.0 | 0.00 | 0.01 | 0.00 | 76 | 1015.1 |
| 20260507123041 | 48 | 214 | 0.0 | 2.0 | 0.00 | 0.01 | 0.00 | 82 | 1015.1 |
| 20260507121555 | 46 | 135 | 0.0 | 0.0 | 0.00 | 0.01 | 0.00 | 88 | 1015.1 |
| 20260507120052 | 45 | 132 | 0.0 | 0.0 | 0.00 | 0.01 | 0.00 | 91 | 1015.0 |
| 20260507114557 | 44 | 6 | 0.0 | 0.0 | 0.00 | 0.02 | 0.00 | 96 | 1015.1 |
| 20260507113006 | 42 | 6 | 0.0 | 0.0 | 0.00 | 0.02 | 0.00 | 97 | 1014.9 |
| 20260507111517 | 40 | 6 | 0.0 | 0.0 | 0.00 | 0.02 | 0.00 | 98 | 1014.8 |
| 20260507110027 | 37 | 6 | 0.0 | 0.0 | 0.00 | 0.02 | 0.00 | 97 | 1014.8 |
| 20260507104544 | 37 | 6 | 0.0 | 0.0 | 0.00 | 0.02 | 0.00 | 96 | 1014.7 |
| 20260507103052 | 37 | 6 | 0.0 | 0.0 | 0.00 | 0.02 | 0.00 | 96 | 1014.5 |